This is the latest recevied weather packets stored in our database for station/object OE3BCB-14. If no packets are shown the sender has not sent any weather packets the latest 10 day(s).
| Time | Temp. | Humidity | Pressure | Rain* | Wind** | Luminosity | Snow |
|---|---|---|---|---|---|---|---|
| 1778053798 | 26.11° C | 43% | 1010.1 hPa | - | - | 214 W/m² | - |
| 1778053495 | 24.44° C | 43% | 1010.1 hPa | - | - | 192 W/m² | - |
| 1778053193 | 24.44° C | 43% | 1010.3 hPa | - | - | 133 W/m² | - |
| 1778052588 | 23.89° C | 44% | 1010.3 hPa | - | - | 29 W/m² | - |
| 1778052286 | 23.89° C | 44% | 1010.3 hPa | - | - | 29 W/m² | - |
| 1778051983 | 23.89° C | 45% | 1010.4 hPa | - | - | 27 W/m² | - |
| 1778051681 | 23.89° C | 45% | 1010.4 hPa | - | - | 27 W/m² | - |
| 1778051378 | 23.33° C | 45% | 1010.4 hPa | - | - | 27 W/m² | - |
| 1778051076 | 23.33° C | 45% | 1010.5 hPa | - | - | 28 W/m² | - |
| 1778050774 | 23.89° C | 45% | 1010.5 hPa | - | - | 34 W/m² | - |
| 1778050471 | 23.89° C | 46% | 1010.7 hPa | - | - | 31 W/m² | - |
| 1778050169 | 23.33° C | 46% | 1010.7 hPa | - | - | 32 W/m² | - |
| 1778049866 | 23.89° C | 46% | 1010.7 hPa | - | - | 29 W/m² | - |
| 1778049261 | 24.44° C | 47% | 1010.8 hPa | - | - | 144 W/m² | - |
| 1778048959 | 24.44° C | 47% | 1010.9 hPa | - | - | 152 W/m² | - |
| 1778048657 | 23.89° C | 47% | 1011 hPa | - | - | 152 W/m² | - |
| 1778048354 | 23.89° C | 49% | 1010.9 hPa | - | - | 158 W/m² | - |
| 1778048052 | 22.78° C | 49% | 1010.9 hPa | - | - | 158 W/m² | - |
| 1778047749 | 22.78° C | 49% | 1010.9 hPa | - | - | 58 W/m² | - |
| 1778047447 | 23.33° C | 49% | 1010.9 hPa | - | - | 141 W/m² | - |
| 1778046842 | 22.78° C | 50% | 1011.1 hPa | - | - | 137 W/m² | - |
| 1778046237 | 22.22° C | 51% | 1011 hPa | - | - | 111 W/m² | - |
| 1778045935 | 21.67° C | 51% | 1010.9 hPa | - | - | 48 W/m² | - |
| 1778045633 | 21.11° C | 51% | 1011 hPa | - | - | 34 W/m² | - |
| 1778045028 | 20.56° C | 53% | 1011.2 hPa | - | - | 84 W/m² | - |
* Rain since midnight (hover to see other rain measurements)
** Current wind speed in m/s (hover to see current wind gust speed)